CW3699 Weather Reports


Display with metric or nautical units.
time (UTC)temp
F
wind
direction
speed
MPH
gust
MPH
rain 1hr
in
rain 24hr
in
rain mn
in
humidity
%
barometer
mb
20260503032414 33 165 2.0 3.0 0.00 0.00 0.00 77 1013.8
20260503031413 34 167 2.0 3.0 0.00 0.00 0.00 77 1013.9
20260503030914 34 170 2.0 3.0 0.00 0.00 0.00 77 1014.0
20260503030412 34 174 2.0 3.0 0.00 0.00 0.00 77 1014.1
20260503025913 34 173 2.0 3.0 0.00 0.00 0.00 78 1014.1
20260503025413 35 166 1.0 2.0 0.00 0.00 0.00 77 1014.2
20260503024913 35 169 1.0 2.0 0.00 0.00 0.00 77 1014.2
20260503023913 35 169 1.0 2.0 0.00 0.00 0.00 76 1014.2
20260503023413 36 169 1.0 2.0 0.00 0.00 0.00 76 1014.3
20260503022914 36 148 1.0 2.0 0.00 0.00 0.00 76 1014.2
20260503022413 36 149 2.0 2.0 0.00 0.00 0.00 78 1014.2
20260503021913 37 163 1.0 2.0 0.00 0.00 0.00 78 1014.2
20260503020914 37 163 1.0 2.0 0.00 0.00 0.00 78 1014.2
20260503020412 37 87 1.0 2.0 0.00 0.00 0.00 78 1014.1
20260503015413 38 160 1.0 2.0 0.00 0.00 0.00 77 1014.1
20260503014913 38 154 1.0 3.0 0.00 0.00 0.00 77 1014.1
20260503014413 38 164 1.0 2.0 0.00 0.00 0.00 76 1014.0
20260503012914 39 177 1.0 2.0 0.00 0.00 0.00 74 1014.0
20260503012414 40 153 1.0 2.0 0.00 0.00 0.00 74 1014.0
20260503011413 41 175 2.0 3.0 0.00 0.00 0.00 73 1013.9
20260503010412 41 139 1.0 2.0 0.00 0.00 0.00 70 1013.9
20260503005413 42 70 2.0 3.0 0.00 0.00 0.00 63 1013.7
20260503004914 43 56 1.0 2.0 0.00 0.00 0.00 63 1013.7
20260503004413 43 145 2.0 3.0 0.00 0.00 0.00 62 1013.7
20260503003914 44 153 1.0 2.0 0.00 0.00 0.00 62 1013.7
20260503003413 44 159 0.0 2.0 0.00 0.00 0.00 61 1013.6
20260503002914 44 251 1.0 3.0 0.00 0.00 0.00 60 1013.6
20260503002414 44 1 1.0 3.0 0.00 0.00 0.00 60 1013.6
20260503001913 44 338 1.0 2.0 0.00 0.00 0.00 59 1013.6
20260503000412 45 309 2.0 3.0 0.00 0.00 0.00 61 1013.6
20260502235912 45 28 1.0 3.0 0.00 0.00 0.00 61 1013.7
20260502235412 45 283 1.0 3.0 0.00 0.00 0.00 59 1013.7
20260502234914 45 331 1.0 3.0 0.00 0.00 0.00 57 1013.7
20260502233913 45 170 1.0 3.0 0.00 0.00 0.00 56 1013.7
20260502233413 45 324 1.0 3.0 0.00 0.00 0.00 59 1013.8
20260502232914 45 331 1.0 3.0 0.00 0.00 0.00 59 1013.8
20260502232413 46 320 1.0 3.0 0.00 0.00 0.00 63 1013.9
20260502231914 46 265 1.0 3.0 0.00 0.00 0.00 63 1013.9
20260502231414 46 17 2.0 3.0 0.00 0.00 0.00 61 1014.0
20260502230913 46 353 1.0 3.0 0.00 0.00 0.00 64 1014.0
20260502225912 46 49 1.0 2.0 0.00 0.00 0.00 62 1014.0
20260502225415 46 276 2.0 3.0 0.00 0.00 0.00 62 1014.1
20260502224913 47 4 1.0 3.0 0.00 0.00 0.00 58 1014.2
20260502224413 47 270 1.0 3.0 0.00 0.00 0.00 59 1014.2
20260502223913 47 25 2.0 3.0 0.00 0.00 0.00 59 1014.2
20260502223413 47 351 1.0 3.0 0.00 0.00 0.00 60 1014.3
20260502222913 47 352 2.0 3.0 0.00 0.00 0.00 60 1014.3
20260502222414 47 24 2.0 5.0 0.00 0.00 0.00 61 1014.3
20260502221413 47 351 2.0 3.0 0.00 0.00 0.00 58 1014.3
20260502220912 47 13 2.0 3.0 0.00 0.00 0.00 57 1014.3
20260502220413 47 1 2.0 3.0 0.00 0.00 0.00 57 1014.4
20260502215413 48 1 2.0 3.0 0.00 0.00 0.00 56 1014.4
20260502214913 48 297 2.0 5.0 0.00 0.00 0.00 54 1014.4
20260502214413 48 6 2.0 6.0 0.00 0.00 0.00 56 1014.5
20260502213913 48 358 2.0 5.0 0.00 0.00 0.00 54 1014.4
20260502213413 48 8 2.0 3.0 0.00 0.00 0.00 56 1014.5
20260502212913 48 27 3.0 3.0 0.00 0.00 0.00 56 1014.5
20260502212413 48 22 3.0 5.0 0.00 0.00 0.00 55 1014.5
20260502211913 49 7 2.0 6.0 0.00 0.00 0.00 53 1014.6
20260502210412 50 17 2.0 5.0 0.00 0.00 0.00 53 1014.6
20260502205413 51 4 2.0 8.0 0.00 0.00 0.00 53 1014.7
20260502204912 50 288 3.0 8.0 0.00 0.00 0.00 53 1014.8
20260502204413 50 35 2.0 3.0 0.00 0.00 0.00 53 1014.8
20260502203913 51 15 2.0 3.0 0.00 0.00 0.00 53 1014.8
20260502203412 51 20 3.0 6.0 0.00 0.00 0.00 54 1014.8
20260502202913 51 9 2.0 5.0 0.00 0.00 0.00 51 1014.8
20260502202413 51 298 3.0 6.0 0.00 0.00 0.00 49 1014.9
20260502201412 51 326 2.0 5.0 0.00 0.00 0.00 52 1014.9
20260502200912 51 30 2.0 3.0 0.00 0.00 0.00 52 1014.9
20260502200412 51 13 3.0 6.0 0.00 0.00 0.00 52 1015.1
20260502195913 51 326 2.0 5.0 0.00 0.00 0.00 51 1015.2
20260502195412 52 335 2.0 6.0 0.00 0.00 0.00 52 1015.2
20260502194913 52 17 2.0 7.0 0.00 0.00 0.00 53 1015.3
20260502194412 52 26 3.0 5.0 0.00 0.00 0.00 51 1015.4
20260502193413 51 0 2.0 5.0 0.00 0.00 0.00 52 1015.5
20260502192913 51 351 2.0 6.0 0.00 0.00 0.00 54 1015.5
20260502192413 51 293 3.0 7.0 0.00 0.00 0.00 53 1015.5
20260502191912 51 297 3.0 8.0 0.00 0.00 0.00 50 1015.6
20260502191412 51 317 2.0 6.0 0.00 0.00 0.00 52 1015.7
20260502190912 51 282 2.0 6.0 0.00 0.00 0.00 50 1015.7
20260502190413 51 335 2.0 6.0 0.00 0.00 0.00 53 1015.8
20260502185413 51 29 3.0 5.0 0.00 0.00 0.00 52 1015.8
20260502184912 51 351 2.0 5.0 0.00 0.00 0.00 53 1015.8
20260502183912 51 278 2.0 5.0 0.00 0.00 0.00 53 1015.9
20260502183413 51 345 3.0 8.0 0.00 0.00 0.00 52 1015.9
20260502182912 50 293 2.0 8.0 0.00 0.00 0.00 55 1015.9
20260502181912 50 294 2.0 7.0 0.00 0.00 0.00 54 1016.0
20260502181412 50 6 2.0 5.0 0.00 0.00 0.00 54 1016.0
20260502180913 50 348 2.0 6.0 0.00 0.00 0.00 53 1016.1
20260502180413 50 5 2.0 5.0 0.00 0.00 0.00 54 1016.0
20260502170413 47 309 2.0 6.0 0.00 0.00 0.00 59 1016.5
20260502163413 48 21 3.0 6.0 0.00 0.00 0.00 62 1016.7
20260502162913 48 9 3.0 6.0 0.00 0.00 0.00 63 1016.7
20260502162413 47 8 3.0 6.0 0.00 0.00 0.00 64 1016.8
20260502161913 47 4 3.0 5.0 0.00 0.00 0.00 65 1016.8
20260502161413 47 12 3.0 5.0 0.00 0.00 0.00 63 1016.9
20260502160913 47 0 3.0 6.0 0.00 0.00 0.00 65 1017.0
20260502160413 47 3 3.0 5.0 0.00 0.00 0.00 65 1017.0
20260502151913 46 8 2.0 5.0 0.00 0.00 0.00 69 1017.1
20260502151413 46 352 3.0 5.0 0.00 0.00 0.00 69 1017.1
20260502150913 46 21 3.0 5.0 0.00 0.00 0.00 69 1017.1
20260502150413 46 30 3.0 8.0 0.00 0.00 0.00 70 1017.1
20260502130412 38 282 3.0 7.0 0.00 0.00 0.00 81 1017.6
20260502123412 36 220 2.0 6.0 0.00 0.00 0.00 82 1017.8
20260502122911 35 333 2.0 6.0 0.00 0.00 0.00 83 1017.8
20260502122413 35 166 2.0 5.0 0.00 0.00 0.00 84 1017.7
20260502121912 34 250 2.0 7.0 0.00 0.00 0.00 84 1017.7
20260502120913 33 190 2.0 5.0 0.00 0.01 0.00 86 1017.7
20260502120412 33 297 2.0 7.0 0.00 0.01 0.00 86 1017.7
20260502115912 32 271 2.0 6.0 0.00 0.01 0.00 87 1017.8
20260502115412 32 235 1.0 7.0 0.00 0.01 0.00 87 1017.7
20260502114912 32 221 3.0 6.0 0.00 0.01 0.00 87 1017.8
20260502114412 31 232 3.0 6.0 0.00 0.01 0.00 87 1017.8
20260502113912 31 228 2.0 5.0 0.00 0.01 0.00 87 1017.8
20260502113412 31 239 3.0 5.0 0.00 0.01 0.00 87 1017.7
20260502112912 31 229 2.0 6.0 0.00 0.01 0.00 88 1017.6
20260502112412 31 219 2.0 3.0 0.00 0.01 0.00 87 1017.6
20260502111412 30 203 3.0 5.0 0.00 0.01 0.00 88 1017.6
20260502110912 30 207 2.0 5.0 0.00 0.01 0.00 88 1017.7
20260502110413 30 217 3.0 6.0 0.00 0.01 0.00 88 1017.7
20260502105913 30 217 2.0 3.0 0.00 0.01 0.00 88 1017.7
20260502105413 29 215 3.0 5.0 0.00 0.01 0.00 89 1017.6
20260502104912 29 213 3.0 7.0 0.00 0.01 0.00 89 1017.6
20260502103912 29 232 3.0 7.0 0.00 0.01 0.00 89 1017.5
20260502103412 28 221 3.0 5.0 0.00 0.01 0.00 89 1017.6
20260502102912 28 211 2.0 3.0 0.00 0.01 0.00 88 1017.6
20260502101412 28 199 2.0 3.0 0.00 0.01 0.00 88 1017.5
20260502100913 28 193 2.0 3.0 0.00 0.01 0.00 88 1017.4
20260502100413 28 209 2.0 5.0 0.00 0.01 0.00 89 1017.4
20260502091412 28 192 2.0 3.0 0.00 0.01 0.00 88 1017.4
20260502090913 28 203 2.0 3.0 0.00 0.01 0.00 88 1017.4
20260502090413 28 203 2.0 3.0 0.00 0.01 0.00 88 1017.4
20260502071411 31 197 1.0 5.0 0.00 0.01 0.00 84 1017.2
20260502070913 31 172 2.0 6.0 0.00 0.01 0.00 84 1017.2
20260502065911 31 229 1.0 3.0 0.00 0.01 0.00 84 1017.2
20260502064912 31 199 1.0 3.0 0.00 0.01 0.00 83 1017.2
20260502064412 31 280 2.0 5.0 0.00 0.01 0.00 83 1017.3
20260502063912 31 172 1.0 3.0 0.00 0.01 0.00 83 1017.3
20260502063414 31 159 2.0 3.0 0.00 0.01 0.00 83 1017.3
20260502062911 31 214 1.0 3.0 0.00 0.01 0.00 83 1017.3
20260502062412 31 176 2.0 6.0 0.00 0.01 0.00 83 1017.4
20260502061913 31 221 2.0 3.0 0.00 0.01 0.00 83 1017.4
20260502060912 32 214 0.0 3.0 0.00 0.01 0.00 82 1017.4
20260502060412 32 193 1.0 3.0 0.00 0.01 0.00 82 1017.5
20260502055412 32 217 1.0 3.0 0.00 0.01 0.00 81 1017.5
20260502054912 32 222 1.0 3.0 0.00 0.01 0.00 81 1017.5
20260502054411 32 298 1.0 3.0 0.00 0.01 0.00 81 1017.5
20260502053912 33 271 1.0 3.0 0.00 0.01 0.00 81 1017.6
20260502053413 33 330 1.0 5.0 0.00 0.01 0.00 81 1017.5
20260502052911 33 289 1.0 3.0 0.00 0.01 0.00 80 1017.6
20260502052412 33 254 1.0 3.0 0.00 0.01 0.00 80 1017.6
20260502051912 34 52 1.0 3.0 0.00 0.01 0.00 80 1017.6
20260502051411 34 328 1.0 3.0 0.00 0.01 0.00 80 1017.6
20260502050912 34 330 1.0 3.0 0.00 0.01 0.00 80 1017.6
20260502050412 34 14 2.0 5.0 0.00 0.01 0.00 80 1017.5
20260502045912 34 22 1.0 5.0 0.00 0.01 0.00 80 1017.5
20260502045412 34 305 3.0 7.0 0.00 0.01 0.00 80 1017.5
20260502044911 34 308 1.0 3.0 0.00 0.01 0.00 80 1017.5
20260502043912 35 345 1.0 3.0 0.00 0.01 0.00 79 1017.6
20260502043412 35 199 1.0 3.0 0.00 0.01 0.00 78 1017.6
20260502042913 36 55 0.0 2.0 0.00 0.01 0.00 78 1017.6
20260502042411 36 34 1.0 3.0 0.00 0.01 0.00 78 1017.6
20260502041912 36 330 1.0 3.0 0.00 0.01 0.00 77 1017.6
20260502041411 37 315 2.0 3.0 0.00 0.01 0.00 77 1017.6
20260502040911 37 345 2.0 6.0 0.00 0.01 0.00 78 1017.6
20260502040412 37 344 3.0 9.0 0.00 0.01 0.00 78 1017.6
20260502035912 37 355 3.0 7.0 0.00 0.01 0.01 77 1017.6
20260502035412 37 336 4.0 8.0 0.00 0.01 0.01 77 1017.6
20260502034912 37 321 3.0 7.0 0.00 0.01 0.01 77 1017.6
20260502034412 37 340 2.0 5.0 0.00 0.01 0.01 77 1017.6
20260502033912 37 335 3.0 7.0 0.00 0.02 0.01 77 1017.6
20260502033412 37 339 3.0 7.0 0.00 0.02 0.01 76 1017.6
20260502032912 37 334 4.0 8.0 0.00 0.02 0.01 76 1017.6